| time (UTC) | temp C | wind direction | speed KPH | gust KPH | rain 1hr cm | rain 24hr cm | rain mn cm | humidity % | barometer mb |
| 20260510110125 | 2 | 144 | 0.0 | 0.0 | 0.00 | 0.03 | 0.03 | 94 | 1010.6 |
| 20260510104517 | 2 | 144 | 0.0 | 0.0 | 0.00 | 0.03 | 0.03 | 93 | 1010.6 |
| 20260510103129 | 2 | 144 | 0.0 | 0.0 | 0.00 | 0.03 | 0.03 | 93 | 1010.6 |
| 20260510101501 | 2 | 144 | 0.0 | 0.0 | 0.00 | 0.03 | 0.03 | 93 | 1010.6 |
| 20260510100050 | 2 | 144 | 0.0 | 0.0 | 0.00 | 0.03 | 0.03 | 93 | 1010.4 |
| 20260510094536 | 2 | 144 | 0.0 | 0.0 | 0.03 | 0.03 | 0.03 | 92 | 1010.4 |
| 20260510093056 | 2 | 144 | 0.0 | 0.0 | 0.03 | 0.03 | 0.03 | 92 | 1010.2 |
| 20260510091519 | 2 | 139 | 3.2 | 6.4 | 0.03 | 0.03 | 0.03 | 92 | 1010.0 |
| 20260510090128 | 2 | 329 | 0.0 | 3.2 | 0.03 | 0.03 | 0.03 | 92 | 1010.2 |
| 20260510084532 | 2 | 348 | 1.6 | 6.4 | 0.00 | 0.00 | 0.00 | 91 | 1009.9 |
| 20260510083057 | 2 | 325 | 0.0 | 3.2 | 0.00 | 0.00 | 0.00 | 91 | 1009.8 |
| 20260510081608 | 2 | 325 | 1.6 | 6.4 | 0.00 | 0.00 | 0.00 | 91 | 1009.6 |
| 20260510080113 | 2 | 309 | 1.6 | 4.8 | 0.00 | 0.00 | 0.00 | 91 | 1009.5 |
| 20260510074622 | 2 | 309 | 1.6 | 6.4 | 0.00 | 0.00 | 0.00 | 91 | 1009.5 |
| 20260510073023 | 2 | 309 | 3.2 | 8.0 | 0.00 | 0.00 | 0.00 | 92 | 1009.2 |
| 20260510071626 | 2 | 317 | 0.0 | 8.0 | 0.00 | 0.00 | 0.00 | 91 | 1009.2 |
| 20260510070042 | 2 | 318 | 4.8 | 6.4 | 0.00 | 0.00 | 0.00 | 91 | 1009.1 |
| 20260510064543 | 2 | 32 | 1.6 | 8.0 | 0.00 | 0.00 | 0.00 | 90 | 1008.5 |
| 20260510063044 | 2 | 95 | 1.6 | 8.0 | 0.00 | 0.00 | 0.00 | 89 | 1008.2 |
| 20260510061532 | 2 | 339 | 4.8 | 12.9 | 0.00 | 0.00 | 0.00 | 89 | 1007.8 |
| 20260510060101 | 3 | 107 | 3.2 | 8.0 | 0.00 | 0.00 | 0.00 | 90 | 1007.2 |
| 20260510054608 | 3 | 51 | 3.2 | 16.1 | 0.00 | 0.00 | 0.00 | 91 | 1007.3 |
| 20260510053107 | 2 | 128 | 4.8 | 17.7 | 0.00 | 0.00 | 0.00 | 92 | 1007.8 |
| 20260510051609 | 2 | 325 | 12.9 | 24.1 | 0.00 | 0.00 | 0.00 | 91 | 1008.1 |
| 20260510050058 | 3 | 306 | 6.4 | 19.3 | 0.00 | 0.00 | 0.00 | 90 | 1008.0 |
| 20260510044626 | 3 | 74 | 8.0 | 27.4 | 0.00 | 0.00 | 0.00 | 90 | 1007.6 |
| 20260510043112 | 3 | 360 | 8.0 | 24.1 | 0.00 | 0.00 | 0.00 | 89 | 1007.6 |
| 20260510041614 | 3 | 355 | 8.0 | 24.1 | 0.00 | 0.00 | 0.00 | 86 | 1007.5 |
| 20260510040118 | 4 | 344 | 12.9 | 32.2 | 0.00 | 0.00 | 0.00 | 83 | 1007.1 |
| 20260510034612 | 5 | 325 | 16.1 | 38.6 | 0.00 | 0.00 | 0.00 | 77 | 1006.8 |
| 20260510033126 | 6 | 294 | 11.3 | 27.4 | 0.00 | 0.00 | 0.00 | 68 | 1006.0 |
| 20260510031620 | 8 | 313 | 8.0 | 24.1 | 0.00 | 0.00 | 0.00 | 50 | 1005.7 |
| 20260510030123 | 10 | 321 | 0.0 | 12.9 | 0.00 | 0.00 | 0.00 | 39 | 1005.4 |
| 20260510024558 | 10 | 65 | 1.6 | 8.0 | 0.00 | 0.00 | 0.00 | 38 | 1005.0 |
| 20260510023104 | 10 | 41 | 1.6 | 6.4 | 0.00 | 0.00 | 0.00 | 37 | 1004.6 |
| 20260510021652 | 10 | 79 | 3.2 | 8.0 | 0.00 | 0.00 | 0.00 | 36 | 1004.3 |
| 20260510020118 | 11 | 112 | 0.0 | 8.0 | 0.00 | 0.00 | 0.00 | 36 | 1004.0 |
| 20260510014621 | 11 | 104 | 3.2 | 6.4 | 0.00 | 0.00 | 0.00 | 34 | 1003.8 |
| 20260510013005 | 11 | 118 | 1.6 | 6.4 | 0.00 | 0.00 | 0.00 | 33 | 1003.9 |
| 20260510011553 | 12 | 21 | 0.0 | 6.4 | 0.00 | 0.00 | 0.00 | 28 | 1003.9 |
| 20260510010054 | 12 | 355 | 0.0 | 1.6 | 0.00 | 0.00 | 0.00 | 29 | 1003.5 |
| 20260510004553 | 12 | 349 | 0.0 | 6.4 | 0.00 | 0.00 | 0.00 | 27 | 1003.4 |
| 20260510003013 | 12 | 263 | 0.0 | 3.2 | 0.00 | 0.00 | 0.00 | 27 | 1003.4 |
| 20260510001632 | 12 | 263 | 0.0 | 8.0 | 0.00 | 0.00 | 0.00 | 28 | 1003.3 |
| 20260510000122 | 13 | 342 | 1.6 | 4.8 | 0.00 | 0.00 | 0.00 | 27 | 1003.3 |
| 20260509234626 | 13 | 342 | 1.6 | 9.7 | 0.00 | 0.00 | 0.00 | 28 | 1003.3 |
| 20260509233119 | 13 | 298 | 1.6 | 9.7 | 0.00 | 0.00 | 0.00 | 28 | 1003.4 |
| 20260509231613 | 13 | 327 | 8.0 | 29.0 | 0.00 | 0.00 | 0.00 | 26 | 1003.2 |
| 20260509230112 | 15 | 44 | 8.0 | 19.3 | 0.00 | 0.00 | 0.00 | 23 | 1002.7 |
| 20260509224613 | 15 | 330 | 6.4 | 16.1 | 0.00 | 0.00 | 0.00 | 20 | 1002.4 |
| 20260509223026 | 16 | 324 | 6.4 | 27.4 | 0.00 | 0.00 | 0.00 | 15 | 1002.3 |
| 20260509221617 | 16 | 317 | 4.8 | 20.9 | 0.00 | 0.00 | 0.00 | 18 | 1002.4 |
| 20260509220119 | 17 | 294 | 6.4 | 24.1 | 0.00 | 0.00 | 0.00 | 18 | 1002.5 |
| 20260509214615 | 17 | 233 | 8.0 | 20.9 | 0.00 | 0.00 | 0.00 | 14 | 1002.5 |
| 20260509213116 | 16 | 252 | 3.2 | 19.3 | 0.00 | 0.00 | 0.00 | 19 | 1002.7 |
| 20260509211607 | 16 | 331 | 8.0 | 22.5 | 0.00 | 0.00 | 0.00 | 21 | 1002.9 |
| 20260509210107 | 17 | 290 | 6.4 | 24.1 | 0.00 | 0.00 | 0.00 | 21 | 1003.0 |
| 20260509204606 | 17 | 279 | 9.7 | 19.3 | 0.00 | 0.00 | 0.00 | 16 | 1003.0 |
| 20260509203107 | 17 | 260 | 6.4 | 25.7 | 0.00 | 0.00 | 0.00 | 17 | 1003.2 |
| 20260509201609 | 16 | 313 | 9.7 | 22.5 | 0.00 | 0.00 | 0.00 | 17 | 1003.4 |
| 20260509200105 | 17 | 275 | 6.4 | 14.5 | 0.00 | 0.00 | 0.00 | 19 | 1003.5 |
| 20260509194603 | 15 | 274 | 8.0 | 19.3 | 0.00 | 0.00 | 0.00 | 20 | 1003.8 |
| 20260509193113 | 16 | 305 | 8.0 | 16.1 | 0.00 | 0.00 | 0.00 | 22 | 1003.9 |
| 20260509191621 | 16 | 317 | 8.0 | 17.7 | 0.00 | 0.00 | 0.00 | 21 | 1004.1 |
| 20260509190018 | 16 | 316 | 6.4 | 17.7 | 0.00 | 0.00 | 0.00 | 22 | 1004.1 |
| 20260509184534 | 16 | 273 | 6.4 | 17.7 | 0.00 | 0.00 | 0.00 | 25 | 1004.0 |
| 20260509183058 | 15 | 277 | 8.0 | 24.1 | 0.00 | 0.00 | 0.00 | 30 | 1004.2 |
| 20260509181555 | 15 | 267 | 8.0 | 20.9 | 0.00 | 0.00 | 0.00 | 26 | 1004.6 |
| 20260509180115 | 14 | 275 | 8.0 | 16.1 | 0.00 | 0.00 | 0.00 | 27 | 1004.4 |
| 20260509174605 | 13 | 302 | 6.4 | 20.9 | 0.00 | 0.00 | 0.00 | 29 | 1004.6 |
| 20260509173148 | 13 | 311 | 9.7 | 22.5 | 0.00 | 0.00 | 0.00 | 29 | 1004.8 |
| 20260509171620 | 13 | 290 | 4.8 | 14.5 | 0.00 | 0.00 | 0.00 | 30 | 1005.0 |
| 20260509170120 | 13 | 306 | 3.2 | 17.7 | 0.00 | 0.00 | 0.00 | 30 | 1004.9 |
| 20260509164610 | 13 | 295 | 4.8 | 12.9 | 0.00 | 0.00 | 0.00 | 30 | 1004.9 |
| 20260509163117 | 12 | 344 | 4.8 | 16.1 | 0.00 | 0.00 | 0.00 | 31 | 1004.9 |
| 20260509161608 | 12 | 281 | 4.8 | 17.7 | 0.00 | 0.00 | 0.00 | 34 | 1004.7 |
| 20260509160112 | 11 | 309 | 4.8 | 16.1 | 0.00 | 0.00 | 0.00 | 32 | 1004.7 |
| 20260509154610 | 11 | 298 | 8.0 | 19.3 | 0.00 | 0.00 | 0.00 | 33 | 1004.8 |
| 20260509153112 | 10 | 299 | 4.8 | 16.1 | 0.00 | 0.00 | 0.00 | 38 | 1004.9 |
| 20260509151604 | 10 | 310 | 3.2 | 14.5 | 0.00 | 0.00 | 0.00 | 38 | 1005.1 |
| 20260509150110 | 10 | 315 | 8.0 | 17.7 | 0.00 | 0.00 | 0.00 | 37 | 1005.1 |
| 20260509144620 | 9 | 287 | 3.2 | 16.1 | 0.00 | 0.00 | 0.00 | 41 | 1005.1 |
| 20260509143132 | 8 | 355 | 3.2 | 9.7 | 0.00 | 0.00 | 0.00 | 44 | 1005.0 |
| 20260509141636 | 7 | 317 | 3.2 | 6.4 | 0.00 | 0.00 | 0.00 | 48 | 1005.1 |
| 20260509140123 | 7 | 342 | 1.6 | 6.4 | 0.00 | 0.00 | 0.00 | 50 | 1005.2 |
| 20260509134621 | 7 | 335 | 1.6 | 6.4 | 0.00 | 0.00 | 0.00 | 51 | 1005.0 |
| 20260509133015 | 7 | 340 | 0.0 | 6.4 | 0.00 | 0.00 | 0.00 | 53 | 1004.9 |
| 20260509131622 | 7 | 347 | 0.0 | 4.8 | 0.00 | 0.00 | 0.00 | 54 | 1004.7 |
| 20260509130112 | 6 | 9 | 0.0 | 4.8 | 0.00 | 0.00 | 0.00 | 59 | 1004.6 |
| 20260509124618 | 5 | 28 | 0.0 | 1.6 | 0.00 | 0.00 | 0.00 | 61 | 1004.5 |
| 20260509123023 | 5 | 31 | 0.0 | 9.7 | 0.00 | 0.00 | 0.00 | 60 | 1004.1 |
| 20260509121518 | 5 | 138 | 0.0 | 3.2 | 0.00 | 0.00 | 0.00 | 61 | 1004.0 |
| 20260509120014 | 5 | 138 | 0.0 | 0.0 | 0.00 | 0.00 | 0.00 | 62 | 1003.6 |
| 20260509114502 | 5 | 138 | 0.0 | 0.0 | 0.00 | 0.00 | 0.00 | 62 | 1003.6 |
| 20260509113051 | 5 | 138 | 0.0 | 0.0 | 0.00 | 0.00 | 0.00 | 63 | 1003.6 |
| 20260509111602 | 5 | 138 | 0.0 | 0.0 | 0.00 | 0.00 | 0.00 | 63 | 1003.7 |